Volver al catálogo

STARLINK-34988

ActivoComunicacionesSSO
NORAD 65453·PAYLOAD·🇺🇸 United States

Lanzado Sep 3, 2025 desde Vandenberg Space Force Base

Loading…

Próximos Pases (próximas 24 horas)

TLE

ActualizadoSource: CelesTrak SupGP

Época: Sep 14, 2026, 22:39 UTC

1 65453C 25194V   26257.94423611  .00066759  00000+0  47382-2 0  2571
2 65453  97.2851 108.2493 0001310  83.6321 279.7375 15.04801642    14

Sigue STARLINK-34988 en tiempo real con AllMySat

Download on the App Store